DW7267 Weather Reports


Display with metric or nautical units.
time (UTC)temp
F
wind
direction
speed
MPH
gust
MPH
rain 1hr
in
rain 24hr
in
rain mn
in
humidity
%
barometer
mb
20260509192036 81 250 3.0 9.0 0.00 0.00 0.00 16 1018.8
20260509191536 81 258 2.0 9.0 0.00 0.00 0.00 13 1019.0
20260509191037 80 247 2.0 9.0 0.00 0.00 0.00 14 1019.0
20260509190801 80 99 3.0 9.0 0.00 0.00 0.00 12 1019.0
20260509190031 80 258 3.0 11.0 0.00 0.00 0.00 13 1019.1
20260509185801 80 210 3.0 11.0 0.00 0.00 0.00 15 1019.0
20260509185030 80 258 3.0 13.0 0.00 0.00 0.00 14 1019.1
20260509184530 80 261 4.0 13.0 0.00 0.00 0.00 15 1019.2
20260509184301 80 29 4.0 12.0 0.00 0.00 0.00 15 1019.2
20260509183757 80 268 4.0 13.0 0.00 0.00 0.00 15 1019.2
20260509183024 80 276 4.0 13.0 0.00 0.00 0.00 18 1019.2
20260509182525 80 195 4.0 11.0 0.00 0.00 0.00 16 1019.2
20260509182024 80 259 3.0 11.0 0.00 0.00 0.00 18 1019.2
20260509181757 80 234 3.0 10.0 0.00 0.00 0.00 17 1019.3
20260509181024 80 258 3.0 10.0 0.00 0.00 0.00 17 1019.3
20260509180518 80 233 3.0 12.0 0.00 0.00 0.00 17 1019.3
20260509180019 80 306 3.0 12.0 0.00 0.00 0.00 16 1019.3
20260509175519 79 266 4.0 13.0 0.00 0.00 0.00 20 1019.4
20260509175018 79 276 3.0 13.0 0.00 0.00 0.00 17 1019.3
20260509174518 79 237 4.0 9.0 0.00 0.00 0.00 18 1019.3
20260509174019 79 327 3.0 9.0 0.00 0.00 0.00 18 1019.4
20260509173511 79 269 2.0 9.0 0.00 0.00 0.00 18 1019.4
20260509173013 79 281 2.0 9.0 0.00 0.00 0.00 18 1019.4
20260509172513 78 45 3.0 9.0 0.00 0.00 0.00 19 1019.4
20260509172012 79 242 3.0 9.0 0.00 0.00 0.00 18 1019.4
20260509171513 79 224 3.0 8.0 0.00 0.00 0.00 18 1019.4
20260509171012 79 84 3.0 8.0 0.00 0.00 0.00 18 1019.6
20260509170507 79 74 2.0 8.0 0.00 0.00 0.00 18 1019.4
20260509170006 78 22 2.0 8.0 0.00 0.00 0.00 20 1019.4
20260509165507 78 27 1.0 5.0 0.00 0.00 0.00 19 1019.4
20260509165007 77 336 1.0 5.0 0.00 0.00 0.00 18 1019.4
20260509164507 77 254 2.0 7.0 0.00 0.00 0.00 18 1019.4
20260509164006 77 10 2.0 7.0 0.00 0.00 0.00 18 1019.4
20260509163503 77 271 2.0 7.0 0.00 0.00 0.00 18 1019.4
20260509163001 77 335 1.0 7.0 0.00 0.00 0.00 19 1019.3
20260509162500 76 289 2.0 7.0 0.00 0.00 0.00 18 1019.3
20260509162001 76 287 2.0 7.0 0.00 0.00 0.00 20 1019.3
20260509161500 76 257 2.0 6.0 0.00 0.00 0.00 19 1019.3
20260509161001 76 32 2.0 6.0 0.00 0.00 0.00 20 1019.3
20260509160459 76 45 1.0 5.0 0.00 0.00 0.00 20 1019.3
20260509155956 76 280 2.0 5.0 0.00 0.00 0.00 20 1019.3
20260509155454 76 246 1.0 5.0 0.00 0.00 0.00 19 1019.3
20260509154954 76 273 1.0 8.0 0.00 0.00 0.00 21 1019.3
20260509154455 75 252 1.0 8.0 0.00 0.00 0.00 20 1019.3
20260509153955 75 303 2.0 8.0 0.00 0.00 0.00 20 1019.2
20260509153449 75 257 2.0 8.0 0.00 0.00 0.00 21 1019.2
20260509152949 75 257 1.0 7.0 0.00 0.00 0.00 20 1019.2
20260509152450 74 322 2.0 7.0 0.00 0.00 0.00 21 1019.2
20260509151949 74 262 2.0 6.0 0.00 0.00 0.00 20 1019.2
20260509150948 74 279 1.0 5.0 0.00 0.00 0.00 20 1019.2
20260509150445 73 317 0.0 4.0 0.00 0.00 0.00 24 1019.1
20260509145947 71 103 0.0 1.0 0.00 0.00 0.00 33 1019.1
20260509145445 70 103 0.0 1.0 0.00 0.00 0.00 36 1019.1
20260509144945 68 230 0.0 1.0 0.00 0.00 0.00 38 1019.1
20260509144446 67 230 0.0 1.0 0.00 0.00 0.00 42 1019.1
20260509143946 65 230 0.0 1.0 0.00 0.00 0.00 45 1019.2
20260509143447 63 230 0.0 1.0 0.00 0.00 0.00 46 1019.2
20260509142939 61 230 0.0 1.0 0.00 0.00 0.00 48 1019.2
20260509142439 60 230 0.0 1.0 0.00 0.00 0.00 49 1019.1
20260509141936 59 231 0.0 1.0 0.00 0.00 0.00 49 1019.2
20260509141435 58 230 0.0 1.0 0.00 0.00 0.00 50 1019.2
20260509140936 56 230 0.0 1.0 0.00 0.00 0.00 50 1019.1
20260509140430 56 230 0.0 1.0 0.00 0.00 0.00 50 1019.1
20260509135931 56 230 0.0 0.0 0.00 0.00 0.00 49 1019.1
20260509135700 55 230 0.0 0.0 0.00 0.00 0.00 51 1019.1
20260509134928 55 230 0.0 0.0 0.00 0.00 0.00 51 1019.0
20260509134428 53 230 0.0 0.0 0.00 0.00 0.00 53 1019.0
20260509134200 53 229 0.0 0.0 0.00 0.00 0.00 55 1018.8
20260509133426 52 229 0.0 0.0 0.00 0.00 0.00 54 1018.8
20260509132924 51 230 0.0 0.0 0.00 0.00 0.00 56 1018.8
20260509132422 50 230 0.0 0.0 0.00 0.00 0.00 58 1018.7
20260509131922 48 229 0.0 0.0 0.00 0.00 0.00 62 1018.6
20260509131653 46 230 0.0 0.0 0.00 0.00 0.00 64 1018.6
20260509130922 44 230 0.0 0.0 0.00 0.00 0.00 67 1018.5
20260509130649 42 231 0.0 0.0 0.00 0.00 0.00 69 1018.5
20260509125914 41 230 0.0 0.0 0.00 0.00 0.00 70 1018.5
20260509125412 40 230 0.0 1.0 0.00 0.00 0.00 70 1018.4
20260509125143 39 230 0.0 1.0 0.00 0.00 0.00 70 1018.4
20260509124410 39 231 0.0 1.0 0.00 0.00 0.00 70 1018.4
20260509123908 39 230 0.0 1.0 0.00 0.00 0.00 69 1018.3
20260509123638 39 230 0.0 0.0 0.00 0.00 0.00 70 1018.3
20260509122906 39 230 0.0 0.0 0.00 0.00 0.00 69 1018.1
20260509122407 39 230 0.0 0.0 0.00 0.00 0.00 69 1018.1
20260509121904 39 230 0.0 0.0 0.00 0.00 0.00 69 1018.1
20260509121406 39 231 0.0 0.0 0.00 0.00 0.00 69 1018.0
20260509120857 39 230 0.0 1.0 0.00 0.00 0.00 69 1018.0
20260509120628 39 230 0.0 1.0 0.00 0.00 0.00 69 1018.0
20260509115855 39 231 0.0 1.0 0.00 0.00 0.00 70 1018.0
20260509115356 38 230 0.0 1.0 0.00 0.00 0.00 70 1018.0
20260509114855 38 230 0.0 1.0 0.00 0.00 0.00 70 1017.9
20260509114627 38 230 0.0 1.0 0.00 0.00 0.00 70 1018.0
20260509113854 38 230 0.0 1.0 0.00 0.00 0.00 71 1017.9
20260509113351 38 230 0.0 1.0 0.00 0.00 0.00 71 1018.0
20260509113123 38 231 0.0 1.0 0.00 0.00 0.00 71 1018.0
20260509112352 38 120 0.0 0.0 0.00 0.00 0.00 71 1018.0
20260509112122 38 120 0.0 0.0 0.00 0.00 0.00 71 1017.9
20260509111350 38 120 0.0 0.0 0.00 0.00 0.00 71 1018.0
20260509110845 38 120 0.0 0.0 0.00 0.00 0.00 71 1018.0
20260509110346 38 120 0.0 0.0 0.00 0.00 0.00 71 1017.9
20260509105844 38 120 0.0 0.0 0.00 0.00 0.00 71 1017.9
20260509105345 38 120 0.0 0.0 0.00 0.00 0.00 70 1017.9
20260509104844 38 120 0.0 0.0 0.00 0.00 0.00 71 1017.9
20260509104346 38 120 0.0 0.0 0.00 0.00 0.00 70 1017.9
20260509104114 38 120 0.0 0.0 0.00 0.00 0.00 70 1018.0
20260509103340 39 120 0.0 0.0 0.00 0.00 0.00 70 1018.0
20260509102840 39 120 0.0 0.0 0.00 0.00 0.00 69 1018.0
20260509102340 39 120 0.0 0.0 0.00 0.00 0.00 69 1018.0
20260509101839 39 120 0.0 0.0 0.00 0.00 0.00 68 1018.0
20260509101609 39 121 0.0 0.0 0.00 0.00 0.00 68 1018.0
20260509100334 39 120 0.0 0.0 0.00 0.00 0.00 68 1018.0
20260509095835 39 120 0.0 0.0 0.00 0.00 0.00 68 1018.0
20260509095334 40 120 0.0 0.0 0.00 0.00 0.00 68 1018.0
20260509095103 40 120 0.0 0.0 0.00 0.00 0.00 67 1018.1
20260509094604 40 120 0.0 0.0 0.00 0.00 0.00 67 1018.1
20260509093831 40 120 0.0 0.0 0.00 0.00 0.00 66 1018.1
20260509093329 40 121 0.0 0.0 0.00 0.00 0.00 67 1018.1
20260509092830 40 120 0.0 0.0 0.00 0.00 0.00 66 1018.1
20260509092329 40 121 0.0 0.0 0.00 0.00 0.00 66 1018.3
20260509091827 41 120 0.0 0.0 0.00 0.00 0.00 65 1018.3
20260509091327 41 120 0.0 0.0 0.00 0.00 0.00 65 1018.3
20260509091053 41 120 0.0 0.0 0.00 0.00 0.00 65 1018.3
20260509090318 41 120 0.0 0.0 0.00 0.00 0.00 64 1018.3
20260509085816 41 121 0.0 0.0 0.00 0.00 0.00 64 1018.3
20260509085314 42 121 0.0 0.0 0.00 0.00 0.00 64 1018.3
20260509084816 42 120 0.0 0.0 0.00 0.00 0.00 63 1018.3
20260509084309 42 120 0.0 0.0 0.00 0.00 0.00 62 1018.3
20260509083806 43 120 0.0 1.0 0.00 0.00 0.00 62 1018.3
20260509083305 43 121 0.0 1.0 0.00 0.00 0.00 61 1018.3
20260509082803 43 120 0.0 2.0 0.00 0.00 0.00 61 1018.3
20260509082306 43 121 0.0 2.0 0.00 0.00 0.00 60 1018.3
20260509081759 44 112 0.0 1.0 0.00 0.00 0.00 60 1018.4
20260509081530 44 112 0.0 1.0 0.00 0.00 0.00 59 1018.4
20260509081033 44 112 0.0 4.0 0.00 0.00 0.00 58 1018.4
20260509080259 45 112 0.0 4.0 0.00 0.00 0.00 57 1018.4
20260509075757 45 112 1.0 4.0 0.00 0.00 0.00 56 1018.4
20260509075529 46 98 1.0 4.0 0.00 0.00 0.00 56 1018.4
20260509075027 46 133 1.0 4.0 0.00 0.00 0.00 55 1018.4
20260509074253 46 121 1.0 3.0 0.00 0.00 0.00 56 1018.5
20260509073753 46 138 0.0 2.0 0.00 0.00 0.00 55 1018.5
20260509073523 47 126 1.0 3.0 0.00 0.00 0.00 54 1018.5
20260509072750 47 105 1.0 3.0 0.00 0.00 0.00 54 1018.5
20260509072520 47 126 1.0 3.0 0.00 0.00 0.00 54 1018.5
20260509072019 47 150 1.0 3.0 0.00 0.00 0.00 54 1018.6
20260509071519 47 112 2.0 4.0 0.00 0.00 0.00 53 1018.5
20260509070748 47 116 2.0 4.0 0.00 0.00 0.00 53 1018.6
20260509070247 47 157 2.0 4.0 0.00 0.00 0.00 53 1018.6
20260509065749 47 113 1.0 4.0 0.00 0.00 0.00 53 1018.6
20260509065247 47 124 0.0 3.0 0.00 0.00 0.00 53 1018.6
20260509064746 47 147 0.0 2.0 0.00 0.00 0.00 53 1018.6
20260509064241 47 148 1.0 2.0 0.00 0.00 0.00 53 1018.6
20260509063741 48 147 1.0 2.0 0.00 0.00 0.00 53 1018.7
20260509063241 48 143 1.0 2.0 0.00 0.00 0.00 52 1018.6
20260509062741 48 116 0.0 3.0 0.00 0.00 0.00 53 1018.7
20260509062509 48 110 0.0 3.0 0.00 0.00 0.00 52 1018.7
20260509061738 49 100 1.0 3.0 0.00 0.00 0.00 52 1018.7
20260509061234 49 99 1.0 3.0 0.00 0.00 0.00 51 1018.6
20260509061007 49 124 1.0 3.0 0.00 0.00 0.00 51 1018.6
20260509060235 49 116 1.0 3.0 0.00 0.00 0.00 50 1018.5
20260509055735 49 126 1.0 2.0 0.00 0.00 0.00 51 1018.6
20260509055232 49 126 1.0 2.0 0.00 0.00 0.00 50 1018.6
20260509054733 50 129 1.0 2.0 0.00 0.00 0.00 50 1018.6
20260509054227 50 133 1.0 2.0 0.00 0.00 0.00 50 1018.6
20260509053729 50 117 0.0 2.0 0.00 0.00 0.00 50 1018.5
20260509052727 50 105 0.0 1.0 0.00 0.00 0.00 50 1018.6
20260509052224 51 105 0.0 1.0 0.00 0.00 0.00 49 1018.6
20260509051958 51 105 0.0 3.0 0.00 0.00 0.00 48 1018.6
20260509051223 52 105 0.0 3.0 0.00 0.00 0.00 47 1018.6
20260509050721 53 105 0.0 3.0 0.00 0.00 0.00 46 1018.6
20260509045721 53 130 1.0 2.0 0.00 0.00 0.00 44 1018.5
20260509045219 54 113 0.0 2.0 0.00 0.00 0.00 44 1018.5
20260509044719 54 115 0.0 2.0 0.00 0.00 0.00 43 1018.5
20260509044212 55 113 0.0 2.0 0.00 0.00 0.00 42 1018.5
20260509043944 55 114 1.0 2.0 0.00 0.00 0.00 42 1018.5
20260509043212 56 119 1.0 2.0 0.00 0.00 0.00 41 1018.4
20260509042713 56 95 0.0 3.0 0.00 0.00 0.00 40 1018.3
20260509042213 56 96 0.0 3.0 0.00 0.00 0.00 40 1018.3
20260509041712 57 115 0.0 3.0 0.00 0.00 0.00 40 1018.3
20260509041207 57 125 1.0 4.0 0.00 0.00 0.00 40 1018.1
20260509040937 57 145 0.0 4.0 0.00 0.00 0.00 40 1018.0
20260509040203 57 117 0.0 3.0 0.00 0.00 0.00 40 1018.0
20260509035701 57 123 0.0 3.0 0.00 0.00 0.00 40 1018.0
20260509035200 57 123 0.0 3.0 0.00 0.00 0.00 40 1017.9
20260509034655 58 119 0.0 3.0 0.00 0.00 0.00 39 1017.9
20260509034151 58 257 0.0 1.0 0.00 0.00 0.00 38 1017.9
20260509033651 59 257 0.0 0.0 0.00 0.00 0.00 37 1017.9
20260509033149 60 257 0.0 0.0 0.00 0.00 0.00 35 1017.8
20260509032649 61 257 0.0 0.0 0.00 0.00 0.00 33 1017.7
20260509032147 62 257 0.0 0.0 0.00 0.00 0.00 32 1017.7
20260509031917 63 256 0.0 0.0 0.00 0.00 0.00 30 1017.7
20260509031146 64 257 0.0 0.0 0.00 0.00 0.00 29 1017.5
20260509030645 65 257 0.0 1.0 0.00 0.00 0.00 28 1017.4
20260509030414 66 257 0.0 1.0 0.00 0.00 0.00 27 1017.3
20260509025915 67 257 0.0 1.0 0.00 0.00 0.00 26 1017.3
20260509025137 67 257 0.0 3.0 0.00 0.00 0.00 25 1017.2
20260509024638 69 257 0.0 3.0 0.00 0.00 0.00 24 1017.1
20260509024139 69 257 0.0 3.0 0.00 0.00 0.00 23 1017.0
20260509023639 70 257 0.0 3.0 0.00 0.00 0.00 22 1016.8
20260509022636 71 258 0.0 7.0 0.00 0.00 0.00 22 1016.7
20260509022135 72 256 0.0 7.0 0.00 0.00 0.00 21 1016.7
20260509021903 72 256 1.0 8.0 0.00 0.00 0.00 21 1016.6
20260509021402 73 281 1.0 8.0 0.00 0.00 0.00 21 1016.6
20260509020631 73 250 0.0 4.0 0.00 0.00 0.00 21 1016.6
20260509020131 73 271 1.0 5.0 0.00 0.00 0.00 21 1016.6
20260509015630 74 266 1.0 6.0 0.00 0.00 0.00 21 1016.5
20260509015125 74 258 1.0 6.0 0.00 0.00 0.00 21 1016.5
20260509014858 74 251 1.0 6.0 0.00 0.00 0.00 20 1016.5
20260509014125 74 271 1.0 6.0 0.00 0.00 0.00 20 1016.5
20260509013625 75 227 1.0 6.0 0.00 0.00 0.00 20 1016.5
20260509013124 75 256 1.0 6.0 0.00 0.00 0.00 20 1016.5
20260509012626 76 262 2.0 7.0 0.00 0.00 0.00 19 1016.5
20260509012347 76 242 3.0 7.0 0.00 0.00 0.00 19 1016.5
20260509011617 77 219 2.0 7.0 0.00 0.00 0.00 19 1016.5
20260509011114 78 233 3.0 8.0 0.00 0.00 0.00 18 1016.5
20260509010611 78 241 2.0 8.0 0.00 0.00 0.00 18 1016.4
20260509010112 78 219 2.0 8.0 0.00 0.00 0.00 18 1016.5
20260509005843 78 251 2.0 9.0 0.00 0.00 0.00 18 1016.4
20260509005111 79 253 3.0 9.0 0.00 0.00 0.00 18 1016.5
20260509004608 79 230 3.0 9.0 0.00 0.00 0.00 19 1016.5
20260509004107 79 196 3.0 9.0 0.00 0.00 0.00 18 1016.6
20260509003605 79 209 3.0 10.0 0.00 0.00 0.00 18 1016.5
20260509003339 80 264 2.0 10.0 0.00 0.00 0.00 18 1016.5
20260509002600 80 252 3.0 10.0 0.00 0.00 0.00 18 1016.5
20260509002057 80 259 3.0 10.0 0.00 0.00 0.00 17 1016.5
20260509001826 80 269 2.0 9.0 0.00 0.00 0.00 18 1016.5
20260509001055 80 243 3.0 11.0 0.00 0.00 0.00 18 1016.4
20260509000554 80 245 3.0 11.0 0.00 0.00 0.00 18 1016.4
20260509000052 80 262 4.0 11.0 0.00 0.00 0.00 17 1016.4
20260508235824 80 290 4.0 11.0 0.00 0.00 0.00 17 1016.4
20260508235052 80 269 3.0 10.0 0.00 0.00 0.00 17 1016.4
20260508234549 80 213 3.0 10.0 0.00 0.00 0.00 18 1016.4
20260508234049 80 231 4.0 10.0 0.00 0.00 0.00 18 1016.4
20260508233548 80 279 4.0 14.0 0.00 0.00 0.00 18 1016.5
20260508233319 80 216 4.0 14.0 0.00 0.00 0.00 18 1016.5
20260508232547 80 285 5.0 15.0 0.00 0.00 0.00 18 1016.4
20260508232047 80 219 4.0 15.0 0.00 0.00 0.00 18 1016.4
20260508231547 81 235 3.0 9.0 0.00 0.00 0.00 18 1016.4
20260508231045 80 250 4.0 13.0 0.00 0.00 0.00 18 1016.5
20260508230546 80 277 5.0 13.0 0.00 0.00 0.00 17 1016.5
20260508230039 81 226 4.0 14.0 0.00 0.00 0.00 17 1016.5
20260508225537 81 280 4.0 14.0 0.00 0.00 0.00 17 1016.5
20260508225307 81 214 5.0 14.0 0.00 0.00 0.00 17 1016.5
20260508224537 81 271 4.0 14.0 0.00 0.00 0.00 16 1016.6
20260508224035 81 245 3.0 14.0 0.00 0.00 0.00 17 1016.5
20260508223535 82 212 3.0 14.0 0.00 0.00 0.00 16 1016.7
20260508223034 82 224 3.0 9.0 0.00 0.00 0.00 17 1016.6
20260508222530 82 252 4.0 10.0 0.00 0.00 0.00 17 1016.7
20260508222029 81 237 4.0 10.0 0.00 0.00 0.00 18 1016.7
20260508221529 82 242 5.0 10.0 0.00 0.00 0.00 16 1016.7
20260508221028 82 266 5.0 11.0 0.00 0.00 0.00 14 1016.8
20260508220524 82 285 5.0 11.0 0.00 0.00 0.00 15 1017.0
20260508220025 82 252 4.0 11.0 0.00 0.00 0.00 15 1017.0
20260508215756 82 281 3.0 9.0 0.00 0.00 0.00 15 1017.0
20260508215023 82 276 3.0 9.0 0.00 0.00 0.00 15 1017.1
20260508214524 82 265 4.0 14.0 0.00 0.00 0.00 15 1017.2
20260508214023 82 244 4.0 14.0 0.00 0.00 0.00 15 1017.3
20260508213523 82 252 4.0 14.0 0.00 0.00 0.00 15 1017.3
20260508213023 81 330 5.0 14.0 0.00 0.00 0.00 15 1017.3
20260508212753 81 210 5.0 12.0 0.00 0.00 0.00 15 1017.3
20260508212021 82 266 4.0 12.0 0.00 0.00 0.00 15 1017.4
20260508211520 81 224 3.0 9.0 0.00 0.00 0.00 17 1017.4
20260508211021 81 269 3.0 10.0 0.00 0.00 0.00 18 1017.5
20260508210518 81 257 4.0 10.0 0.00 0.00 0.00 16 1017.5
20260508210016 80 259 4.0 12.0 0.00 0.00 0.00 16 1017.7
20260508205516 80 6 4.0 12.0 0.00 0.00 0.00 16 1017.7
20260508205012 80 292 4.0 13.0 0.00 0.00 0.00 16 1017.7
20260508204512 80 193 4.0 13.0 0.00 0.00 0.00 16 1017.8
20260508203510 80 276 3.0 13.0 0.00 0.00 0.00 17 1017.9
20260508203242 80 242 4.0 13.0 0.00 0.00 0.00 17 1018.0
20260508202510 80 224 5.0 13.0 0.00 0.00 0.00 16 1018.0
20260508202009 80 51 4.0 14.0 0.00 0.00 0.00 17 1018.1
20260508201511 80 235 4.0 14.0 0.00 0.00 0.00 17 1018.1
20260508201010 80 316 4.0 15.0 0.00 0.00 0.00 17 1018.1
20260508200736 79 296 4.0 15.0 0.00 0.00 0.00 18 1018.3
20260508200007 79 273 6.0 16.0 0.00 0.00 0.00 17 1018.4
20260508195505 79 286 5.0 16.0 0.00 0.00 0.00 16 1018.4
20260508194505 78 261 5.0 14.0 0.00 0.00 0.00 16 1018.5
20260508194009 78 257 5.0 14.0 0.00 0.00 0.00 17 1018.6
20260508193502 78 238 6.0 15.0 0.00 0.00 0.00 17 1018.6
20260508193233 78 251 6.0 15.0 0.00 0.00 0.00 17 1018.6
20260508192502 78 286 5.0 14.0 0.00 0.00 0.00 17 1018.6